Location: Kitchener
(43.4500°N, 80.5000°W)
Time: 12:59:42
(UTC-04:00)

Cosmos 1939 Rocket - Visible Passes

Search period start: 23 July 2016 00:00
Search period end: 02 August 2016 00:00
Orbit: 533 x 588 km, 97.6° (Epoch: 22 July)

Date Brightness Start Highest point End Pass type
(mag) Time Alt. Az. Time Alt. Az. Time Alt. Az.
23 Jul 3.1 21:23:01 10° SSE 21:26:46 51° ENE 21:30:34 10° N visible
23 Jul 5.6 23:00:32 10° WSW 23:02:03 12° W 23:03:34 10° WNW visible
24 Jul 3.1 21:22:03 10° SSE 21:25:47 50° ENE 21:29:35 10° N visible
24 Jul 5.6 22:59:26 10° WSW 23:01:04 12° W 23:02:42 10° WNW visible
25 Jul 3.1 21:21:05 10° SSE 21:24:49 49° ENE 21:28:37 10° N visible
25 Jul 5.6 22:58:20 10° WSW 23:00:04 13° W 23:01:50 10° WNW visible
26 Jul 3.2 21:20:07 10° SSE 21:23:50 48° ENE 21:27:38 10° N visible
26 Jul 5.5 22:57:15 10° WSW 22:59:05 13° W 23:00:57 10° WNW visible
27 Jul 3.2 21:19:09 10° SSE 21:22:51 46° ENE 21:26:39 10° N visible
27 Jul 5.5 22:56:09 10° WSW 22:58:06 13° W 23:00:03 10° WNW visible
28 Jul 3.2 21:18:11 10° SE 21:21:53 45° ENE 21:25:40 10° N visible
28 Jul 5.5 22:55:05 10° WSW 22:57:07 14° W 22:59:09 10° WNW visible
29 Jul 3.3 21:17:12 10° SE 21:20:55 44° ENE 21:24:42 10° N visible
29 Jul 5.5 22:54:01 10° SW 22:56:08 14° W 22:58:16 10° WNW visible
30 Jul 3.3 21:16:14 10° SE 21:19:56 43° ENE 21:23:43 10° N visible
30 Jul 5.5 22:52:57 10° SW 22:55:08 14° W 22:57:21 10° WNW visible
31 Jul 3.3 21:15:16 10° SE 21:18:59 42° ENE 21:22:44 10° N visible
31 Jul 5.5 22:51:53 10° SW 22:54:09 15° W 22:56:27 10° NW visible
01 Aug 3.4 21:14:19 10° SE 21:18:00 41° ENE 21:21:46 10° N visible
01 Aug 5.5 22:50:49 10° SW 22:53:10 15° W 22:55:33 10° NW visible
